北斗 10 (BEIDOU 10)

导读

BEIDOU-2 IGSO-5 是中国北斗二号卫星导航系统中的一颗倾斜地球同步轨道卫星(IGSO),于2012年发射。该卫星运行在高度约35,900公里的椭圆轨道上,倾角约为55度,主要用于增强北斗系统在亚太地区的定位、导航和授时服务。IGSO-5 与其他北斗卫星协同工作,提升系统覆盖范围和定位精度,支持交通运输、气象监测、应急救援等多个领域应用,是中国建设自主卫星导航体系的重要组成部分。

基本信息
目录编号:
37948
目录名称:
BEIDOU 10
国际标识:
2011-073A
轨道中心:
EARTH
卫星名称:
北斗 10
卫星全名:
北斗 10 (BEIDOU 10)
卫星状态:
在轨 (已飞行5316 天)
发射日期:
2011-12-01 UTC
国别 :
中国 (CN)
星等 :
--
轨道信息
数据来源 国际轨道数据 AOE轨道数据
星历时间 2026-06-19T00:01:16+0800
3天前
查看轨道信息
2026-06-17T03:00:00+0800
5天前
查看轨道信息
半长轴 42164.504km 42164.364km
偏心率 0.0113972 0.0114054
轨道倾角 47.675° 47.678°
近地点辐角 221.770° 221.710°
升交点赤经 271.527° 271.550°
平近点角 105.652° 148.535°
近地点 35305.809km 35305.325km
远地点 36266.925km 36267.129km
周期 1436.085分钟 1436.078分钟
每日圈数 1.002726 1.002731
详细信息
卫星平台:
东方红三号
平衡模式:
三轴稳定
制造商(研发单位):
中国空间技术研究院
制造商所在国:
中国
使用方式:
暂无
卫星简介
北斗卫星导航系统是中国着眼于国家安全和经济社会发展需要,自主建设运行的全球卫星导航系统,是为全球用户提供全天候、全天时、高精度的定位、导航和授时服务的国家重要时空基础设施。该卫星仍在工作。
2D轨道图
3D轨道图
轨道高度分析图
轨道倾角分析图
轨道综合分析图
查看轨道综合分析图